SCP
0 0 0 0 0 0 0 0 0 0 0 0 0 0 0 0 0 0 0 0 0 0 0 1 1 0 0 0 0 0 0 0 0 0 0 0 0 0 0 0 0 -0 0
0 0 0 0 0 0 0 0 0 0 0 0 0 0 0 0 0 0 0 0 0 0 0 1 1 0 0 0 1 0 0 0 0 0 0 0 0 0 0 0 0 0 0
0 0 0 0 0 0 0 0 0 0 0 0 0 0 0 0 0 0 0 0 0 0 0 1 0 0 0 1 0 0 0 0 0 0 0 0 0 0 0 0 0 0 0
0 0 0 0 0 0 0 0 0 0 0 0 0 0 0 0 0 0 0 0 0 1 0 1 0 0 0 0 0 0 0 0 0 0 0 0 0 0 0 0 0 0 0
0 0 0 0 0 0 0 0 0 0 0 0 0 0 0 0 0 0 0 0 1 1 1 1 0 0 0 0 0 0 0 0 -0 0 0 -0 0 0 0 0 0 0 0
0 0 0 0 0 0 0 0 0 0 0 0 0 0 0 0 0 0 1 1 1 1 1 1 1 0 0 0 0 0 0 -0 0 0 -0 0 0 0 0 0 0 0 0
0 0 0 0 0 0 0 0 0 0 0 0 0 0 0 0 0 1 1 1 0 1 1 1 1 1 0 0 0 0 0 0 0 0 -0 0 0 0 0 0 0 0 -0
0 0 0 0 0 0 0 0 -0 -0 0 -0 0 0 0 0 0 0 1 1 0 0 1 1 0 0 0 0 0 0 0 -0 0 -0 0 0 0 0 0 0 -0 0 0
0 0 0 0 0 0 0 -0 0 -0 -0 -0 0 0 0 0 0 0 0 0 0 0 0 0 1 0 0 0 0 0 0 0 0 0 0 0 0 -0 -0 -0 0 0 0
0 0 0 0 0 0 -0 0 0 0 -0 -0 0 0 0 0 0 0 0 0 0 0 0 0 0 0 0 0 0 0 0 0 0 0 -0 -0 -0 -0 -0 -0 0 0 0
0 0 0 0 0 -0 0 -0 0 0 0 0 0 0 0 0 0 0 0 0 0 0 0 0 0 0 0 0 0 0 0 0 0 0 0 0 -0 -0 0 0 0 0 0
0 0 0 -0 -0 0 0 0 0 0 0 0 0 -0 0 0 0 0 0 0 0 0 0 0 0 0 0 0 0 0 0 0 0 0 0 0 0 -0 0 0 0 0 0
0 -0 -0 -0 0 0 0 0 0 -0 -0 0 -0 0 0 0 0 0 0 0 0 0 0 0 0 0 0 0 0 0 0 0 0 0 0 0 0 0 0 0 0 0 0
-0 0 0 0 0 0 0 0 -0 -0 0 0 -0 -0 -0 0 0 0 0 0 0 0 0 0 0 0 0 0 0 0 0 0 0 0 0 0 0 0 0 0 0 0 0
-0 0 0 0 0 0 0 0 -0 -0 0 0 0 0 -0 -0 0 0 0 0 0 0 0 0 0 0 0 0 0 0 0 0 0 0 0 0 0 0 0 0 0 0 0
-0 -0 -0 0 0 0 0 0 0 0 0 0 -0 -0 -0 0 0 0 0 0 0 0 0 0 0 0 0 0 0 0 0 0 0 0 0 0 0 0 0 0 0 0 0
0 -0 0 0 0 0 0 0 0 0 0 -0 -0 -0 -0 0 0 -0 0 0 -0 0 0 0 0 0 0 0 0 0 0 0 0 0 0 -0 0 0 0 0 0 0 0
-0 -0 0 0 0 0 0 0 0 0 0 0 0 0 0 0 0 0 0 0 0 0 0 0 0 0 0 0 0 0 0 0 0 0 0 0 0 0 0 0 0 0 0
-0 -0 -0 -0 -0 0 0 0 0 0 0 0 0 -0 0 0 0 0 -0 0 0 0 0 0 0 0 0 0 0 0 0 0 0 0 0 0 0 0 0 0 0 0 0
-0 -0 0 0 0 0 0 0 0 0 0 0 0 0 -0 0 0 0 0 0 -0 0 0 0 0 0 0 0 0 0 0 0 0 0 0 0 -0 -0 -0 -0 -0 -0 0
-0 0 -0 0 -0 0 0 0 0 0 0 0 0 0 0 0 0 0 0 0 0 0 0 0 0 0 0 0 0 0 0 0 0 0 0 -0 -0 -0 0 -0 -0 -0 0
-0 -0 -0 0 -0 0 0 0 0 0 0 0 0 0 0 -0 0 -0 -0 -0 -0 0 -0 0 0 0 0 0 0 0 0 0 0 0 -0 -0 0 0 0 0 0 0 0
0 -0 -0 0 0 0 0 0 0 0 0 0 0 0 0 0 0 0 -0 -0 -0 -0 0 0 0 0 0 0 0 0 0 0 0 -0 -0 0 0 0 0 0 0 0 0
0 0 0 -0 0 -0 -0 0 0 0 0 0 0 0 0 0 0 0 -0 -0 -0 0 0 0 0 -0 -0 0 0 0 0 -0 -0 0 0 0 0 0 0 0 0 0 0
0 0 0 -0 -0 0 0 0 0 0 -0 0 0 0 0 0 0 0 0 0 0 0 0 0 0 0 -0 -0 -0 -0 -0 -0 0 0 0 0 0 0 0 0 0 0 0
0 0 0 -0 -0 -0 -0 -0 0 -0 -0 0 0 0 0 0 0 0 0 -0 0 0 0 0 0 0 0 -0 -0 -0 -0 -0 0 0 0 0 0 0 0 0 0 0 0
Wind_Speed_500mb
38 39 39 35 34 31 27 28 29 27 31 35 39 32 31 35 38 33 35 37 34 39 43 44 42 43 48 51 51 55 44 35 51 46 44 44 41 36 34 30 27 23 19
36 38 40 39 38 34 32 29 30 29 29 30 33 36 34 36 39 37 36 37 35 40 42 42 42 43 45 51 57 62 32 39 57 59 45 43 41 40 33 28 22 20 18
36 37 40 41 38 37 36 31 30 29 28 29 31 32 34 35 37 36 36 35 35 39 40 42 44 46 46 55 36 41 38 40 45 47 45 44 41 34 31 23 20 17 17
32 34 37 37 35 32 32 30 29 27 26 28 29 31 31 32 33 32 33 31 36 36 36 37 41 47 54 58 35 39 48 43 51 55 57 47 37 35 31 25 20 21 22
30 33 34 32 32 31 30 29 27 28 29 28 28 28 25 24 27 28 28 29 32 32 31 32 41 49 52 53 45 44 52 45 56 63 52 45 39 36 30 23 24 26 24
30 31 29 28 31 33 31 28 29 30 29 24 26 24 21 23 22 22 20 25 25 26 24 29 39 43 51 47 47 49 52 57 60 61 52 44 39 34 28 26 28 25 23
34 26 22 24 28 28 26 25 26 28 26 28 27 20 19 19 16 21 21 22 22 22 23 30 37 39 46 48 50 53 51 47 64 62 51 43 38 31 23 24 26 27 21
18 12 18 19 20 21 23 22 26 29 26 33 26 21 18 17 20 25 20 20 19 21 21 30 36 36 43 51 48 55 54 60 77 64 54 46 36 31 31 32 32 27 18
6 7 11 13 17 18 18 23 28 25 27 34 27 19 13 12 20 21 19 15 22 20 20 23 32 32 42 49 49 52 59 75 72 64 55 49 42 37 36 36 31 19 12
9 9 8 9 12 16 19 24 24 21 22 33 33 24 16 17 18 17 16 11 15 17 21 23 27 28 34 50 53 57 70 79 72 66 58 47 42 33 33 32 23 18 13
12 10 11 8 11 17 20 26 22 20 20 24 26 23 16 11 18 20 18 18 12 14 19 20 20 30 35 45 48 55 76 67 70 63 56 51 39 33 27 26 23 17 13
14 13 12 11 13 17 24 27 23 19 18 19 17 13 15 10 9 16 24 26 26 19 20 20 17 19 32 34 52 85 84 79 70 63 56 48 36 30 29 28 22 15 13
11 15 13 14 14 18 26 27 24 16 13 15 16 13 12 14 12 22 33 39 33 28 19 19 14 14 39 48 72 76 87 74 71 59 50 41 33 32 32 25 19 13 11
8 12 16 15 14 20 27 29 23 16 17 18 15 10 12 18 20 28 35 45 40 23 33 26 11 15 60 73 93 91 78 73 64 52 41 33 39 30 25 22 17 13 11
7 14 20 17 16 20 26 30 24 18 20 15 13 15 13 17 29 17 15 39 20 23 22 23 28 48 82 82 84 79 71 64 52 44 36 35 31 26 24 20 14 13 11
8 18 21 19 19 22 25 27 26 25 20 17 14 15 18 23 26 18 11 18 29 37 19 38 33 68 80 84 76 76 69 61 52 41 36 35 27 26 23 19 15 12 10
10 16 21 22 20 21 23 24 25 26 21 20 19 16 22 21 20 28 19 28 24 18 21 28 51 88 86 83 77 70 60 50 41 37 34 29 26 25 21 18 16 14 10
14 17 22 23 23 23 22 22 22 22 23 22 22 21 18 19 26 22 17 20 15 20 21 44 76 78 80 81 76 64 52 39 31 33 32 30 28 24 21 17 13 10 12
14 17 19 23 24 22 21 19 18 18 24 24 22 24 25 20 21 17 18 19 18 19 29 49 58 69 76 74 68 55 46 37 31 39 35 30 25 19 16 12 11 11 12
15 17 20 24 24 23 21 19 24 28 26 23 23 21 22 18 18 21 21 22 22 25 34 53 56 72 74 69 65 59 46 28 45 36 30 25 20 16 13 10 7 10 12
17 18 20 24 25 22 22 20 25 23 23 24 25 26 25 23 24 21 22 23 29 37 43 54 64 65 72 68 61 49 39 39 41 32 29 25 19 15 11 7 5 3 7
18 18 20 23 27 26 22 22 27 23 15 15 24 32 32 29 27 23 22 20 26 31 48 59 63 71 75 65 54 37 34 40 38 30 28 28 21 17 15 11 1 6 10
18 15 16 21 26 27 27 29 25 21 17 21 28 33 31 30 28 19 28 32 35 40 34 55 57 60 67 59 45 39 32 35 30 37 30 29 23 16 13 7 2 4 9
19 11 13 21 25 28 29 28 19 18 24 26 25 32 36 41 32 45 48 42 48 48 48 43 44 58 53 42 33 34 40 31 32 33 26 24 23 16 13 7 3 5 9
15 13 12 16 35 31 32 31 27 29 31 31 40 43 38 41 55 47 46 39 47 48 46 45 44 43 42 40 40 43 38 36 31 29 27 19 25 19 14 11 6 3 12
19 19 23 31 37 32 36 32 30 31 46 44 46 46 41 41 43 40 35 37 45 46 48 49 45 46 44 40 37 31 28 25 24 24 25 21 26 21 12 21 10 5 12
Wind_Direction_500mb
258 255 256 249 249 253 263 261 258 264 255 246 243 236 228 223 229 240 237 225 230 222 222 221 219 220 215 211 212 203 210 256 209 194 192 168 173 176 171 172 171 175 174
266 261 256 250 248 251 259 262 259 264 252 243 235 233 225 222 224 237 233 226 226 219 221 220 217 213 211 206 209 198 219 221 219 202 213 171 174 174 171 171 169 174 169
269 265 261 257 252 253 249 256 257 261 250 239 231 225 222 220 223 229 227 229 223 218 222 216 214 207 202 198 190 195 200 220 224 200 182 174 174 173 168 160 174 166 159
270 268 262 255 252 247 239 249 252 252 242 235 227 219 213 220 230 224 223 228 218 219 223 216 206 198 192 188 199 200 196 187 192 181 175 171 179 169 157 173 168 162 151
275 274 263 247 239 237 240 248 254 247 236 229 219 206 208 218 213 217 229 220 217 220 220 211 196 186 186 187 187 192 190 216 188 179 170 171 176 170 161 164 160 152 145
283 278 262 239 232 237 242 249 255 243 224 217 197 197 202 201 207 221 216 210 223 222 215 205 189 190 190 198 195 191 188 185 184 175 169 171 170 162 153 161 151 148 150
288 278 248 228 228 235 239 246 243 209 199 187 183 187 185 191 215 206 204 207 216 214 207 201 192 191 195 194 190 188 191 190 180 166 167 166 163 145 148 149 158 154 147
287 253 215 216 224 230 233 233 193 186 191 184 184 162 171 187 197 197 197 207 208 203 205 203 196 197 194 191 194 193 188 180 160 162 160 162 141 155 154 170 166 144 150
268 200 196 219 233 227 219 200 188 193 189 184 180 170 162 186 173 186 190 203 196 187 183 185 190 188 192 194 193 194 191 174 163 156 157 150 150 152 165 164 147 146 134
231 221 209 228 219 198 193 187 187 186 187 183 178 187 189 184 180 168 183 193 184 185 187 182 181 193 207 198 194 189 184 161 159 156 149 143 135 141 161 147 153 150 135
233 222 202 217 193 187 182 182 182 175 173 187 188 200 200 189 192 168 154 169 176 186 194 184 187 207 204 201 196 178 156 157 155 151 149 146 145 154 141 162 159 149 141
226 210 201 203 183 182 179 172 176 183 191 203 201 212 208 199 195 172 161 161 177 181 183 177 185 203 205 190 187 167 164 158 151 148 151 144 158 147 164 168 154 148 150
205 206 195 194 187 179 177 173 169 168 186 187 184 188 195 220 223 187 164 164 166 149 162 171 182 203 194 194 182 175 153 152 150 153 147 156 154 161 165 153 152 153 132
175 187 180 178 176 172 176 173 176 164 158 162 164 190 211 206 160 187 172 172 162 133 164 159 179 239 189 151 144 145 149 147 154 151 149 160 164 148 151 161 156 140 128
131 165 167 167 165 165 170 178 173 171 166 162 143 131 137 154 177 162 160 174 180 155 145 174 163 159 158 147 145 148 149 152 150 151 154 161 140 152 160 160 148 141 140
117 159 157 154 158 160 163 166 165 169 171 165 145 126 148 151 148 144 95 155 181 179 138 168 176 162 158 147 148 149 154 158 161 150 159 140 147 159 158 150 152 151 161
126 155 158 152 154 159 162 161 160 166 163 157 145 145 137 144 159 149 150 174 190 192 187 162 132 164 156 151 152 154 149 148 148 154 148 136 155 152 153 155 171 184 205
132 140 164 166 161 159 155 160 165 167 169 165 155 157 165 147 143 157 128 145 153 164 177 155 131 153 147 153 152 150 146 147 155 153 137 153 153 155 167 175 189 214 238
128 137 150 163 165 165 160 156 162 166 161 161 161 173 160 158 172 164 151 152 159 173 180 166 156 157 154 155 149 145 152 155 155 145 153 152 155 164 171 190 216 242 268
122 130 143 154 159 158 157 153 151 151 147 155 169 169 163 165 165 164 157 155 164 159 170 170 165 158 158 151 151 151 148 148 134 142 147 146 155 168 185 209 250 273 279
127 127 146 146 146 149 145 145 152 158 149 147 148 145 149 154 155 159 156 160 160 158 160 166 159 152 153 155 153 153 139 142 143 145 150 152 165 167 166 180 212 255 317
127 132 134 145 141 141 132 134 139 139 143 161 155 147 148 149 150 156 169 167 164 180 158 160 162 165 160 163 161 155 155 146 143 155 160 152 160 160 165 164 178 325 338
138 125 149 150 151 139 139 137 124 117 115 122 134 134 133 141 141 143 144 135 138 160 156 161 167 166 172 166 164 161 161 162 165 158 162 154 161 167 167 175 169 354 343
139 99 141 160 170 148 144 153 144 119 123 118 128 133 144 150 133 129 128 125 122 130 138 146 146 164 160 164 169 170 169 169 156 161 171 160 176 187 182 180 170 350 1
132 126 100 161 168 148 154 145 140 131 130 138 143 136 124 128 144 133 129 126 129 132 133 133 140 151 158 161 162 166 168 172 169 181 187 204 191 193 195 215 215 7 10
120 123 96 120 149 147 151 151 145 136 137 130 129 129 126 123 132 128 131 137 140 142 142 142 143 149 152 152 154 165 173 176 188 181 196 188 192 199 183 212 221 353 355
Wind_Speed_850mb
38 39 39 35 34 31 27 28 29 27 31 35 39 32 31 35 38 33 35 37 34 39 43 44 42 43 48 51 51 55 44 35 51 46 44 44 41 36 34 30 27 23 19
36 38 40 39 38 34 32 29 30 29 29 30 33 36 34 36 39 37 36 37 35 40 42 42 42 43 45 51 57 62 32 39 57 59 45 43 41 40 33 28 22 20 18
36 37 40 41 38 37 36 31 30 29 28 29 31 32 34 35 37 36 36 35 35 39 40 42 44 46 46 55 36 41 38 40 45 47 45 44 41 34 31 23 20 17 17
32 34 37 37 35 32 32 30 29 27 26 28 29 31 31 32 33 32 33 31 36 36 36 37 41 47 54 58 35 39 48 43 51 55 57 47 37 35 31 25 20 21 22
30 33 34 32 32 31 30 29 27 28 29 28 28 28 25 24 27 28 28 29 32 32 31 32 41 49 52 53 45 44 52 45 56 63 52 45 39 36 30 23 24 26 24
30 31 29 28 31 33 31 28 29 30 29 24 26 24 21 23 22 22 20 25 25 26 24 29 39 43 51 47 47 49 52 57 60 61 52 44 39 34 28 26 28 25 23
34 26 22 24 28 28 26 25 26 28 26 28 27 20 19 19 16 21 21 22 22 22 23 30 37 39 46 48 50 53 51 47 64 62 51 43 38 31 23 24 26 27 21
18 12 18 19 20 21 23 22 26 29 26 33 26 21 18 17 20 25 20 20 19 21 21 30 36 36 43 51 48 55 54 60 77 64 54 46 36 31 31 32 32 27 18
6 7 11 13 17 18 18 23 28 25 27 34 27 19 13 12 20 21 19 15 22 20 20 23 32 32 42 49 49 52 59 75 72 64 55 49 42 37 36 36 31 19 12
9 9 8 9 12 16 19 24 24 21 22 33 33 24 16 17 18 17 16 11 15 17 21 23 27 28 34 50 53 57 70 79 72 66 58 47 42 33 33 32 23 18 13
12 10 11 8 11 17 20 26 22 20 20 24 26 23 16 11 18 20 18 18 12 14 19 20 20 30 35 45 48 55 76 67 70 63 56 51 39 33 27 26 23 17 13
14 13 12 11 13 17 24 27 23 19 18 19 17 13 15 10 9 16 24 26 26 19 20 20 17 19 32 34 52 85 84 79 70 63 56 48 36 30 29 28 22 15 13
11 15 13 14 14 18 26 27 24 16 13 15 16 13 12 14 12 22 33 39 33 28 19 19 14 14 39 48 72 76 87 74 71 59 50 41 33 32 32 25 19 13 11
8 12 16 15 14 20 27 29 23 16 17 18 15 10 12 18 20 28 35 45 40 23 33 26 11 15 60 73 93 91 78 73 64 52 41 33 39 30 25 22 17 13 11
7 14 20 17 16 20 26 30 24 18 20 15 13 15 13 17 29 17 15 39 20 23 22 23 28 48 82 82 84 79 71 64 52 44 36 35 31 26 24 20 14 13 11
8 18 21 19 19 22 25 27 26 25 20 17 14 15 18 23 26 18 11 18 29 37 19 38 33 68 80 84 76 76 69 61 52 41 36 35 27 26 23 19 15 12 10
10 16 21 22 20 21 23 24 25 26 21 20 19 16 22 21 20 28 19 28 24 18 21 28 51 88 86 83 77 70 60 50 41 37 34 29 26 25 21 18 16 14 10
14 17 22 23 23 23 22 22 22 22 23 22 22 21 18 19 26 22 17 20 15 20 21 44 76 78 80 81 76 64 52 39 31 33 32 30 28 24 21 17 13 10 12
14 17 19 23 24 22 21 19 18 18 24 24 22 24 25 20 21 17 18 19 18 19 29 49 58 69 76 74 68 55 46 37 31 39 35 30 25 19 16 12 11 11 12
15 17 20 24 24 23 21 19 24 28 26 23 23 21 22 18 18 21 21 22 22 25 34 53 56 72 74 69 65 59 46 28 45 36 30 25 20 16 13 10 7 10 12
17 18 20 24 25 22 22 20 25 23 23 24 25 26 25 23 24 21 22 23 29 37 43 54 64 65 72 68 61 49 39 39 41 32 29 25 19 15 11 7 5 3 7
18 18 20 23 27 26 22 22 27 23 15 15 24 32 32 29 27 23 22 20 26 31 48 59 63 71 75 65 54 37 34 40 38 30 28 28 21 17 15 11 1 6 10
18 15 16 21 26 27 27 29 25 21 17 21 28 33 31 30 28 19 28 32 35 40 34 55 57 60 67 59 45 39 32 35 30 37 30 29 23 16 13 7 2 4 9
19 11 13 21 25 28 29 28 19 18 24 26 25 32 36 41 32 45 48 42 48 48 48 43 44 58 53 42 33 34 40 31 32 33 26 24 23 16 13 7 3 5 9
15 13 12 16 35 31 32 31 27 29 31 31 40 43 38 41 55 47 46 39 47 48 46 45 44 43 42 40 40 43 38 36 31 29 27 19 25 19 14 11 6 3 12
19 19 23 31 37 32 36 32 30 31 46 44 46 46 41 41 43 40 35 37 45 46 48 49 45 46 44 40 37 31 28 25 24 24 25 21 26 21 12 21 10 5 12
Wind_Direction_850mb
258 255 256 249 249 253 263 261 258 264 255 246 243 236 228 223 229 240 237 225 230 222 222 221 219 220 215 211 212 203 210 256 209 194 192 168 173 176 171 172 171 175 174
266 261 256 250 248 251 259 262 259 264 252 243 235 233 225 222 224 237 233 226 226 219 221 220 217 213 211 206 209 198 219 221 219 202 213 171 174 174 171 171 169 174 169
269 265 261 257 252 253 249 256 257 261 250 239 231 225 222 220 223 229 227 229 223 218 222 216 214 207 202 198 190 195 200 220 224 200 182 174 174 173 168 160 174 166 159
270 268 262 255 252 247 239 249 252 252 242 235 227 219 213 220 230 224 223 228 218 219 223 216 206 198 192 188 199 200 196 187 192 181 175 171 179 169 157 173 168 162 151
275 274 263 247 239 237 240 248 254 247 236 229 219 206 208 218 213 217 229 220 217 220 220 211 196 186 186 187 187 192 190 216 188 179 170 171 176 170 161 164 160 152 145
283 278 262 239 232 237 242 249 255 243 224 217 197 197 202 201 207 221 216 210 223 222 215 205 189 190 190 198 195 191 188 185 184 175 169 171 170 162 153 161 151 148 150
288 278 248 228 228 235 239 246 243 209 199 187 183 187 185 191 215 206 204 207 216 214 207 201 192 191 195 194 190 188 191 190 180 166 167 166 163 145 148 149 158 154 147
287 253 215 216 224 230 233 233 193 186 191 184 184 162 171 187 197 197 197 207 208 203 205 203 196 197 194 191 194 193 188 180 160 162 160 162 141 155 154 170 166 144 150
268 200 196 219 233 227 219 200 188 193 189 184 180 170 162 186 173 186 190 203 196 187 183 185 190 188 192 194 193 194 191 174 163 156 157 150 150 152 165 164 147 146 134
231 221 209 228 219 198 193 187 187 186 187 183 178 187 189 184 180 168 183 193 184 185 187 182 181 193 207 198 194 189 184 161 159 156 149 143 135 141 161 147 153 150 135
233 222 202 217 193 187 182 182 182 175 173 187 188 200 200 189 192 168 154 169 176 186 194 184 187 207 204 201 196 178 156 157 155 151 149 146 145 154 141 162 159 149 141
226 210 201 203 183 182 179 172 176 183 191 203 201 212 208 199 195 172 161 161 177 181 183 177 185 203 205 190 187 167 164 158 151 148 151 144 158 147 164 168 154 148 150
205 206 195 194 187 179 177 173 169 168 186 187 184 188 195 220 223 187 164 164 166 149 162 171 182 203 194 194 182 175 153 152 150 153 147 156 154 161 165 153 152 153 132
175 187 180 178 176 172 176 173 176 164 158 162 164 190 211 206 160 187 172 172 162 133 164 159 179 239 189 151 144 145 149 147 154 151 149 160 164 148 151 161 156 140 128
131 165 167 167 165 165 170 178 173 171 166 162 143 131 137 154 177 162 160 174 180 155 145 174 163 159 158 147 145 148 149 152 150 151 154 161 140 152 160 160 148 141 140
117 159 157 154 158 160 163 166 165 169 171 165 145 126 148 151 148 144 95 155 181 179 138 168 176 162 158 147 148 149 154 158 161 150 159 140 147 159 158 150 152 151 161
126 155 158 152 154 159 162 161 160 166 163 157 145 145 137 144 159 149 150 174 190 192 187 162 132 164 156 151 152 154 149 148 148 154 148 136 155 152 153 155 171 184 205
132 140 164 166 161 159 155 160 165 167 169 165 155 157 165 147 143 157 128 145 153 164 177 155 131 153 147 153 152 150 146 147 155 153 137 153 153 155 167 175 189 214 238
128 137 150 163 165 165 160 156 162 166 161 161 161 173 160 158 172 164 151 152 159 173 180 166 156 157 154 155 149 145 152 155 155 145 153 152 155 164 171 190 216 242 268
122 130 143 154 159 158 157 153 151 151 147 155 169 169 163 165 165 164 157 155 164 159 170 170 165 158 158 151 151 151 148 148 134 142 147 146 155 168 185 209 250 273 279
127 127 146 146 146 149 145 145 152 158 149 147 148 145 149 154 155 159 156 160 160 158 160 166 159 152 153 155 153 153 139 142 143 145 150 152 165 167 166 180 212 255 317
127 132 134 145 141 141 132 134 139 139 143 161 155 147 148 149 150 156 169 167 164 180 158 160 162 165 160 163 161 155 155 146 143 155 160 152 160 160 165 164 178 325 338
138 125 149 150 151 139 139 137 124 117 115 122 134 134 133 141 141 143 144 135 138 160 156 161 167 166 172 166 164 161 161 162 165 158 162 154 161 167 167 175 169 354 343
139 99 141 160 170 148 144 153 144 119 123 118 128 133 144 150 133 129 128 125 122 130 138 146 146 164 160 164 169 170 169 169 156 161 171 160 176 187 182 180 170 350 1
132 126 100 161 168 148 154 145 140 131 130 138 143 136 124 128 144 133 129 126 129 132 133 133 140 151 158 161 162 166 168 172 169 181 187 204 191 193 195 215 215 7 10
120 123 96 120 149 147 151 151 145 136 137 130 129 129 126 123 132 128 131 137 140 142 142 142 143 149 152 152 154 165 173 176 188 181 196 188 192 199 183 212 221 353 355